{"data":{"norad_id":69235,"intl_designator":"2026-116A","name":"TJS-24","alt_names":[],"object_type":"PAYLOAD","status":"ACTIVE","operator":null,"country":"PRC","launch_date":"2026-05-26","launch_site_code":"WSC","launch_vehicle":null,"mission":null,"orbit_class":"UNKNOWN","rcs_meters":null,"size_class":null,"mass_kg":null,"dimensions":null,"purposes":["comms"],"wikipedia_slug":null,"has_3d_model":false,"image_url":null,"decayed_at":null,"tle_current":{"epoch":"2026-09-19T23:21:45.584064Z","epoch_age_seconds":63316,"freshness":"FRESH","line1":"1 69235U 26116A   26262.97344426 -.00000236  00000+0  00000+0 0  9998","line2":"2 69235   0.2463  88.4530 0001154 174.0234 177.1578  1.00274148  1174","mean_motion":1.00274148,"eccentricity":0.0001154,"inclination_deg":0.2463,"raan_deg":88.453,"arg_perigee_deg":174.0234,"mean_anomaly_deg":177.1578,"bstar":0,"rev_number":117,"period_min":1436.0630618372,"perigee_km":35781.066805895,"apogee_km":35790.798273145,"semimajor_km":42164.06953952,"source":"CELESTRAK","updated_at":"2026-09-20T09:00:35.349355Z"}}}